KB9QJM Weather Reports


time (UTC)temp
F
wind
direction
speed
knots
gust
knots
rain 1hr
in
rain 24hr
in
rain mn
in
humidity
%
barometer
mb
20260906101554 73 46 5.2 9.6 0.00 0.00 0.00 93 1015.0
20260906100052 73 21 4.3 7.8 0.00 0.00 0.00 94 1014.9
20260906094558 73 16 5.2 7.8 0.00 0.00 0.00 95 1014.7
20260906093058 72 15 2.6 3.5 0.00 0.00 0.00 94 1014.6
20260906091555 73 22 2.6 4.3 0.00 0.00 0.00 94 1014.6
20260906090054 73 35 3.5 7.8 0.00 0.00 0.00 94 1014.5
20260906084602 73 24 4.3 7.0 0.00 0.00 0.00 95 1014.5
20260906083054 73 339 3.5 7.0 0.00 0.00 0.00 94 1014.4
20260906081552 73 360 4.3 7.0 0.00 0.00 0.00 95 1014.3
20260906080053 72 340 3.5 5.2 0.00 0.00 0.00 95 1014.3
20260906074549 72 360 3.5 5.2 0.00 0.00 0.00 94 1014.2
20260906073059 72 328 1.7 3.5 0.00 0.00 0.00 93 1014.3
20260906071557 72 346 3.5 5.2 0.00 0.00 0.00 93 1014.2
20260906064552 73 331 4.3 7.8 0.00 0.00 0.00 92 1014.3
20260906063103 73 348 4.3 7.0 0.00 0.00 0.00 92 1014.4
20260906061626 74 13 5.2 7.0 0.00 0.00 0.00 91 1014.5
20260906060114 74 331 2.6 4.3 0.00 0.00 0.00 90 1014.6
20260906054557 75 331 2.6 5.2 0.00 0.00 0.00 90 1014.5
20260906053059 76 342 3.5 4.3 0.00 0.00 0.00 89 1014.6
20260906051605 76 341 3.5 5.2 0.00 0.00 0.00 88 1014.7
20260906050056 77 331 3.5 7.8 0.00 0.00 0.00 88 1014.5
20260906044552 78 348 4.3 7.8 0.00 0.00 0.00 87 1014.2
20260906043102 79 339 4.3 8.7 0.00 0.00 0.00 87 1014.1
20260906041553 79 355 2.6 4.3 0.00 0.00 0.00 87 1014.1
20260906040056 80 352 3.5 6.1 0.00 0.00 0.00 86 1014.1
20260906034601 80 355 4.3 8.7 0.00 0.00 0.00 86 1014.0
20260906033100 81 340 5.2 9.6 0.00 0.00 0.00 84 1013.8
20260906031553 81 351 8.7 12.2 0.00 0.00 0.00 83 1013.7
20260906030054 82 13 8.7 12.2 0.00 0.00 0.00 82 1013.7
20260906024601 82 5 7.8 10.4 0.00 0.00 0.00 82 1013.4
20260906023057 83 86 7.0 11.3 0.00 0.00 0.00 82 1013.6
20260906021554 82 50 7.0 11.3 0.00 0.00 0.00 82 1013.5
20260906014557 83 82 4.3 7.8 0.00 0.00 0.00 77 1012.9
20260906013053 84 73 1.7 4.3 0.00 0.00 0.00 73 1012.5
20260906011559 85 23 6.1 15.6 0.00 0.00 0.00 71 1012.5
20260906004557 87 36 0.9 1.7 0.00 0.00 0.00 72 1012.3
20260906003057 88 0 0.0 1.7 0.00 0.00 0.00 70 1012.2
20260906001554 89 314 0.0 1.7 0.00 0.00 0.00 69 1012.3
20260906000050 90 312 0.9 3.5 0.00 0.00 0.00 68 1012.6
20260905234557 91 5 3.5 7.8 0.00 0.00 0.00 66 1012.8
20260905233102 91 41 7.8 11.3 0.00 0.00 0.00 64 1012.7
20260905231554 92 38 2.6 11.3 0.00 0.00 0.00 64 1012.4
20260905230051 93 352 7.8 11.3 0.00 0.00 0.00 61 1012.3
20260905224554 94 17 3.5 13.9 0.00 0.00 0.00 58 1012.1
20260905223055 94 352 8.7 12.2 0.00 0.00 0.00 57 1012.2
20260905221554 95 329 9.6 15.6 0.00 0.00 0.00 56 1012.2
20260905220059 95 5 8.7 15.6 0.00 0.00 0.00 56 1011.9
20260905214604 96 11 11.3 19.1 0.00 0.00 0.00 55 1012.1
20260905213113 98 288 9.6 13.9 0.00 0.00 0.00 51 1012.1
20260905211607 97 345 9.6 17.4 0.00 0.00 0.00 51 1012.0
20260905210111 98 317 5.2 14.8 0.00 0.00 0.00 51 1012.2
20260905204559 98 294 7.8 13.9 0.00 0.00 0.00 50 1012.4
20260905203106 98 291 10.4 20.9 0.00 0.00 0.00 52 1012.7
20260905201556 97 274 10.4 15.6 0.00 0.00 0.00 51 1012.8
20260905200104 98 321 8.7 13.9 0.00 0.00 0.00 52 1012.7
20260905194556 97 274 6.1 14.8 0.00 0.00 0.00 51 1012.7
20260905193052 98 283 7.8 12.2 0.00 0.00 0.00 51 1012.7
20260905191551 98 292 5.2 18.2 0.00 0.00 0.00 51 1013.1
20260905184604 94 304 9.6 17.4 0.00 0.00 0.00 58 1013.5
20260905183109 94 151 4.3 9.6 0.00 0.00 0.00 59 1013.9
20260905181558 93 149 4.3 8.7 0.00 0.00 0.00 61 1013.9
20260905174555 91 151 5.2 9.6 0.00 0.00 0.00 63 1014.2
20260905173057 90 156 0.9 7.8 0.00 0.00 0.00 66 1014.4
20260905171554 89 113 4.3 8.7 0.00 0.00 0.00 65 1014.6
20260905164558 88 146 7.0 10.4 0.00 0.00 0.00 67 1015.1
20260905163108 87 123 7.0 10.4 0.00 0.00 0.00 69 1015.1
20260905161600 87 176 6.1 10.4 0.00 0.00 0.00 70 1015.0
20260905160100 86 163 8.7 12.2 0.00 0.00 0.00 71 1015.3
20260905154554 85 94 7.8 12.2 0.00 0.00 0.00 71 1015.5
20260905153111 85 138 8.7 11.3 0.00 0.00 0.00 72 1015.3
20260905151608 84 71 9.6 13.9 0.00 0.00 0.00 75 1015.6
20260905150058 84 98 9.6 13.9 0.00 0.00 0.00 77 1015.4
20260905144554 83 107 7.0 12.2 0.00 0.00 0.00 78 1015.3
20260905143105 83 104 10.4 16.5 0.00 0.00 0.00 79 1015.4
20260905141621 83 94 12.2 17.4 0.00 0.00 0.00 78 1015.2
20260905140106 83 80 7.8 13.0 0.00 0.00 0.00 78 1015.4
20260905134552 81 100 2.6 9.6 0.00 0.00 0.00 82 1015.5
20260905133059 80 80 7.8 13.0 0.00 0.00 0.00 84 1015.5
20260905131616 80 151 0.9 2.6 0.00 0.00 0.00 89 1014.9
20260905130057 78 49 0.9 2.6 0.00 0.00 0.00 93 1015.1
20260905124550 77 67 0.9 3.5 0.00 0.00 0.00 94 1014.9
20260905123106 76 0 0.0 1.7 0.00 0.00 0.00 95 1015.0
20260905121555 75 165 0.9 1.7 0.00 0.00 0.00 96 1014.7
20260905120105 74 0 0.0 2.6 0.00 0.00 0.00 96 1014.9
20260905114558 73 10 0.9 1.7 0.00 0.00 0.00 96 1014.6
20260905113054 73 0 0.0 1.7 0.00 0.00 0.00 95 1014.5
20260905111550 74 0 0.0 1.7 0.00 0.00 0.00 96 1014.5
20260905110106 74 15 0.9 2.6 0.00 0.00 0.00 95 1014.2
20260905104558 74 134 0.9 2.6 0.00 0.00 0.00 95 1014.1
20260905103053 74 0 0.0 1.7 0.00 0.00 0.00 95 1014.3